Location: Kitchener
(43.4500°N, 80.5000°W)
Time: 04:23:24
(UTC-04:00)

ATLAS 5 CENTAUR R/B - Visible Passes

Search period start: 29 September 2016 00:00
Search period end: 09 October 2016 00:00
Orbit: 652 x 1008 km, 63.4° (Epoch: 27 September)

Date Brightness Start Highest point End Pass type
(mag) Time Alt. Az. Time Alt. Az. Time Alt. Az.
29 Sep 4.9 03:07:02 12° E 03:07:02 12° E 03:07:33 10° E visible
29 Sep 2.7 04:48:48 50° S 04:48:48 50° S 04:53:40 10° SSE visible
29 Sep 4.1 06:30:33 11° W 06:31:07 11° WSW 06:33:04 10° SW visible
29 Sep 1.9 19:32:28 10° SSW 19:37:08 57° ESE 19:42:12 10° NE visible
29 Sep 3.9 21:18:04 10° W 21:22:13 26° NW 21:26:40 10° NNE visible
29 Sep 5.0 23:08:15 10° NNW 23:08:57 10° NNW 23:09:40 10° N visible
30 Sep 4.3 04:33:19 18° SSE 04:33:19 18° SSE 04:34:47 10° SSE visible
30 Sep 3.9 20:59:03 10° W 21:03:16 27° NW 21:07:48 10° NNE visible
30 Sep 4.9 22:49:00 10° NNW 22:49:57 10° NNW 22:50:57 10° N visible
01 Oct 3.8 20:40:03 10° W 20:44:19 28° NW 20:48:55 10° NNE visible
01 Oct 4.9 22:29:48 10° NNW 22:30:58 11° NNW 22:32:09 10° N visible
02 Oct 3.7 20:21:03 10° W 20:25:22 30° NW 20:30:02 10° NNE visible
02 Oct 4.8 22:10:37 10° NNW 22:11:58 11° NNW 22:13:21 10° N visible
03 Oct 3.6 20:02:03 10° WSW 20:06:25 31° NW 20:11:09 10° NNE visible
03 Oct 4.8 21:51:27 10° NNW 21:52:59 11° NNW 21:54:32 10° N visible
04 Oct 3.6 19:43:03 10° WSW 19:47:28 33° NW 19:52:15 10° NNE visible
04 Oct 4.8 21:32:18 10° NW 21:33:59 11° NNW 21:35:42 10° N visible
05 Oct 3.5 19:24:05 10° WSW 19:28:31 34° NW 19:33:22 10° NNE visible
05 Oct 4.7 21:13:09 10° NW 21:14:59 12° NNW 21:16:51 10° N visible
06 Oct 4.7 20:54:01 10° NW 20:55:59 12° NNW 20:58:01 10° N visible
07 Oct 4.6 20:34:53 10° NW 20:37:00 12° NNW 20:39:10 10° N visible
08 Oct 4.6 20:15:46 10° NW 20:18:00 13° NNW 20:20:19 10° N visible
